Погода в Сокольниках

Россия / Калининградская область     54°39′43″N   20°55′53″E
темп.,
°C
ветер,
м/с
пор.,
м/с
влажн.,
%
обл.,
%
осадки,
мм/ч
давл.,
гПа
погр.,
м
28 февраля, вс
вс2823:000зсз39930 0.0 1031215
02:00+2з388548 0.0 1031217
05:00+2з4109171 0.0 1029278
08:00+3зсз6119669 0.0 1028509
11:00+4зсз61089100 0.0 1027627
14:00+5сз6985100 0.0 1028566
17:00+5сз5108158 0.0 1028489
20:00+3сз5118741 0.0 1029320
1 марта, пн
пн123:00+3сз410890 0.0 1030264
02:00+2сз36920 0.0 1032130
05:00+1сз23920 0.0 103136
08:00+2з23910 0.0 103333
11:00+6з47770 0.0 1032371
14:00+8зюз58690 0.0 1032479
17:00+8зюз511697 0.0 1030614
20:00+4з411843 0.0 1029369
2 марта, вт
вт223:00+3з513870 0.0 1029407
02:00+3з411945 0.0 1028326
05:00+2з410944 0.0 1027284
08:00+2з410965 0.0 1027284
11:00+6зсз59767 0.0 1028482
14:00+8зсз69663 0.0 1029567
17:00+6сз487314 0.0 1029408
20:00+2сз35907 0.0 1030140
3 марта, ср
ср323:00+2ссз239074 0.0 103155
02:00+1с228471 0.0 103222
05:000с1181100 0.0 103121
08:000ююв007983 0.0 103122
11:00+5ююз22582 0.0 1030269
14:00+8ююз23464 0.0 1028599
17:00+7ююз24600 0.0 1025133
20:00+3юз33890 0.0 102364
4 марта, чт
чт423:00+2зюз38910 0.0 1021149
02:00+2зюз49880 0.0 1018207
05:00+1зюз49910 0.0 1015199
08:00+1зюз38940 0.0 1013192
11:00+5з578431 0.0 1011545
14:00+5зсз378865 0.0 1010504
17:00+3ссз3592100 0.1 1009374
20:000с5995100 0.2 1009433